Location: Jetmore Motorplex
(37.9889°N, 99.8876°W)
Time: 17:56:45
(UTC+00:00)

STARLINK-55 - Pass Details

Date: 17 February 2020
Orbit: 393 x 395 km, 53.0° (Epoch: 01 April)

Event Time Altitude Azimuth Distance (km) Brightness Sun altitude
Rises 01:13:55 0° 221° (SW) 2,285 7.6 -11.4°
Reaches altitude 10° 01:15:59 10° 218° (SW) 1,433 6.4 -11.9°
Maximum altitude 01:19:09 65° 136° (SE) 440 2.9 -12.5°
Enters shadow 01:21:08 21° 58° (ENE) 958 4.3 -12.9°
